Location: Unspecified
(36.5600°N, 136.6600°E)
Time: 19:11:23
(UTC+09:00)

BlueWalker 3 - Pass Details

Date: 18 June 2024
Orbit: 480 x 491 km, 53.2° (Epoch: 19 July)

Event Time Altitude Azimuth Distance (km) Brightness Sun altitude
Rises 02:41:49 0° 326° (NW) 2,538 5.7 -18.2°
Reaches altitude 10° 02:45:01 10° 355° (N) 1,658 5.2 -17.8°
Maximum altitude 02:46:49 13° 24° (NNE) 1,479 5.4 -17.6°
Drops below altitude 10° 02:48:37 10° 53° (NE) 1,657 5.8 -17.3°
Sets 02:51:48 0° 83° (E) 2,537 6.3 -16.9°
